Location: Unspecified
(0.0000°N, 0.0000°E)
Time: 16:23:44
(UTC+00:00)

SR - Pass Details

Date: 24 November 2019
Orbit: 573 x 882 km, 66.7° (Epoch: 12 December)

Event Time Altitude Azimuth Distance (km) Brightness Sun altitude
Rises 12:51:19 0° 231° (SW) 2,951 ? 64.1°
Reaches altitude 10° 12:54:14 10° 251° (WSW) 2,095 ? 63.6°
Maximum altitude 12:57:20 17° 292° (WNW) 1,722 ? 63.1°
Drops below altitude 10° 13:00:34 10° 333° (NNW) 2,220 ? 62.6°
Sets 13:03:49 0° 352° (N) 3,209 ? 62.1°
